�N����,����,�~����,�C��,���x,�C��,����,���ϕ���,�ő�u�ԕ���,�ő厞����,���˗�,�I�_���x,�n�����x,�ő啗���N��,DTYPE
"23/10/03","00:10",0.0,15.7,85.0,1012.8,312.7,2.2,3.9,323.2,0.00,13.2,21.1,"00:03:48",1
"23/10/03","00:20",0.0,16.0,83.9,1012.6,327.1,2.5,4.1,330.3,0.00,13.3,21.1,"00:16:52",1
"23/10/03","00:30",0.0,16.1,82.9,1012.6,328.6,2.6,3.9,342.2,0.00,13.2,21.1,"00:22:32",1
"23/10/03","00:40",0.0,16.1,82.2,1012.8,326.0,2.2,3.7,335.9,0.00,13.1,21.0,"00:32:32",1
"23/10/03","00:50",0.0,15.8,82.5,1013.0,306.2,1.6,2.9,315.6,0.00,12.9,21.0,"00:47:02",1
"23/10/03","01:00",0.0,15.7,82.8,1013.0,333.2,2.0,2.9,339.8,0.00,12.8,21.0,"00:52:42",1
"23/10/03","01:10",0.0,15.5,83.3,1012.8,324.0,1.7,2.9,324.8,0.00,12.7,21.1,"01:07:40",1
"23/10/03","01:20",0.0,15.3,83.8,1012.8,304.3,1.5,2.6,316.6,0.00,12.6,20.9,"01:19:40",1
"23/10/03","01:30",0.0,15.2,84.3,1012.8,310.1,1.5,2.4,336.0,0.00,12.6,20.8,"01:25:12",1
"23/10/03","01:40",0.0,15.1,84.6,1013.0,312.7,1.2,2.7,337.4,0.00,12.6,20.8,"01:34:20",1
"23/10/03","01:50",0.0,14.5,85.1,1012.8,321.8,1.1,1.8,328.2,0.00,12.1,20.9,"01:45:20",1
"23/10/03","02:00",0.0,13.9,85.9,1012.6,285.8,0.8,1.7,324.3,0.00,11.6,20.7,"01:57:48",1
"23/10/03","02:10",0.0,13.8,86.8,1012.8,311.8,0.8,1.8,311.6,0.00,11.7,20.8,"02:01:46",1
"23/10/03","02:20",0.0,13.4,87.5,1012.8,262.9,0.5,1.3,261.0,0.00,11.4,20.8,"02:12:22",1
"23/10/03","02:30",0.0,13.6,88.5,1012.6,299.4,1.6,2.1,315.0,0.00,11.8,20.8,"02:22:38",1
"23/10/03","02:40",0.0,13.4,89.1,1012.3,303.0,0.8,1.1,296.0,0.00,11.7,20.6,"02:35:54",1
"23/10/03","02:50",0.0,13.3,89.8,1012.6,311.5,1.7,2.1,317.7,0.00,11.7,20.6,"02:48:20",1
"23/10/03","03:00",0.0,13.2,90.3,1012.1,292.6,1.2,1.4,320.3,0.00,11.7,20.5,"02:50:20",1
"23/10/03","03:10",0.0,13.0,90.7,1012.1,305.0,1.7,1.9,310.5,0.00,11.6,20.5,"03:01:42",1
"23/10/03","03:20",0.0,13.3,91.4,1012.3,315.9,1.8,2.4,325.7,0.00,12.0,20.5,"03:19:42",1
"23/10/03","03:30",0.0,13.4,91.5,1012.8,289.4,1.3,2.1,307.4,0.00,12.1,20.5,"03:20:08",1
"23/10/03","03:40",0.0,13.5,92.0,1012.3,304.9,1.8,2.6,333.7,0.00,12.3,20.4,"03:39:18",1
"23/10/03","03:50",0.0,13.8,92.0,1012.6,306.4,1.7,3.1,324.4,0.00,12.6,20.3,"03:42:22",1
"23/10/03","04:00",0.0,13.8,92.2,1012.3,306.5,1.6,2.6,332.5,0.00,12.6,20.2,"03:53:30",1
"23/10/03","04:10",0.0,13.6,92.3,1012.3,279.4,0.8,1.8,289.0,0.00,12.4,20.2,"04:07:22",1
"23/10/03","04:20",0.0,13.7,92.4,1012.3,293.2,1.3,2.0,311.5,0.00,12.5,20.2,"04:15:26",1
"23/10/03","04:30",0.0,13.6,92.4,1012.1,268.7,0.2,0.9,264.8,0.00,12.4,20.3,"04:20:52",1
"23/10/03","04:40",0.0,13.4,92.6,1012.1,301.8,1.2,2.5,311.7,0.00,12.3,20.1,"04:38:22",1
"23/10/03","04:50",0.0,13.2,92.7,1012.1,319.0,1.6,2.1,308.0,0.00,12.1,20.0,"04:47:34",1
"23/10/03","05:00",0.0,13.3,92.9,1012.3,289.3,1.6,2.0,318.9,0.00,12.2,20.0,"04:56:32",1
"23/10/03","05:10",0.0,13.4,92.9,1012.1,296.5,1.5,2.4,302.3,0.00,12.3,20.0,"05:03:14",1
"23/10/03","05:20",0.0,13.0,93.0,1012.6,293.3,1.1,1.9,303.3,0.00,11.9,19.8,"05:19:48",1
"23/10/03","05:30",0.0,13.4,93.2,1012.1,305.7,1.8,2.9,324.0,0.00,12.4,19.7,"05:29:26",1
"23/10/03","05:40",0.0,14.1,92.8,1012.3,322.2,2.5,3.9,301.3,0.00,13.0,19.8,"05:31:38",1
"23/10/03","05:50",0.0,14.2,92.4,1012.6,325.6,2.2,3.7,332.6,0.00,13.0,19.9,"05:49:28",1
"23/10/03","06:00",0.0,14.4,91.9,1012.6,324.7,2.6,3.5,309.4,0.00,13.1,19.8,"05:56:36",1
"23/10/03","06:10",0.0,14.5,91.5,1013.3,309.9,1.7,2.9,329.1,0.00,13.2,19.8,"06:02:28",1
"23/10/03","06:20",0.0,14.6,91.2,1013.3,319.1,1.8,2.7,340.1,0.00,13.2,19.8,"06:10:58",1
"23/10/03","06:30",0.0,14.8,90.9,1013.5,323.2,1.3,2.5,320.6,0.00,13.4,19.8,"06:21:04",1
"23/10/03","06:40",0.0,15.2,90.6,1013.5,311.0,1.2,2.0,309.3,0.01,13.7,19.5,"06:31:02",1
"23/10/03","06:50",0.0,15.5,90.0,1014.0,320.3,1.1,1.8,329.3,0.02,13.9,19.9,"06:47:52",1
"23/10/03","07:00",0.0,15.7,89.3,1013.5,317.8,1.6,2.6,329.9,0.04,14.0,19.8,"06:50:32",1
"23/10/03","07:10",0.0,16.2,88.3,1013.0,325.6,1.7,3.5,330.1,0.05,14.3,19.6,"07:03:28",1
"23/10/03","07:20",0.0,16.4,87.1,1013.5,297.4,1.1,2.7,328.1,0.04,14.3,19.6,"07:13:04",1
"23/10/03","07:30",0.0,16.9,85.9,1013.8,280.1,1.0,2.4,248.6,0.09,14.6,19.8,"07:28:24",1
"23/10/03","07:40",0.0,17.8,84.2,1013.3,308.3,1.0,2.2,338.5,0.12,15.1,19.9,"07:33:28",1
"23/10/03","07:50",0.0,18.1,81.7,1013.5,262.7,1.0,2.5,243.5,0.14,15.0,19.8,"07:40:02",1
"23/10/03","08:00",0.0,18.3,79.5,1013.3,262.7,1.1,2.5,247.4,0.13,14.7,19.9,"07:50:16",1
"23/10/03","08:10",0.0,18.7,78.2,1013.0,237.3,0.5,1.2,229.8,0.15,14.9,20.0,"08:05:04",1
"23/10/03","08:20",0.0,19.5,75.9,1013.3,235.4,0.5,1.8,329.4,0.18,15.2,19.8,"08:15:20",1
"23/10/03","08:30",0.0,20.4,74.1,1013.3,339.5,1.1,3.2,350.3,0.22,15.7,19.9,"08:24:00",1
"23/10/03","08:40",0.0,20.7,72.4,1012.8,217.4,0.8,2.1,227.8,0.26,15.6,19.9,"08:32:56",1
"23/10/03","08:50",0.0,20.6,70.8,1012.8,244.1,1.1,2.1,242.2,0.22,15.2,20.0,"08:47:20",1
"23/10/03","09:00",0.0,21.0,70.6,1013.0,176.3,0.8,2.1,215.5,0.25,15.5,20.1,"08:57:52",1
"23/10/03","09:10",0.0,21.2,69.0,1012.8,183.1,1.1,2.1,115.5,0.28,15.3,20.0,"09:04:00",1
"23/10/03","09:20",0.0,20.9,68.8,1012.8,221.2,1.2,2.2,245.3,0.21,15.0,20.1,"09:12:24",1
"23/10/03","09:30",0.0,21.6,68.3,1012.6,157.9,0.6,1.8,232.0,0.26,15.6,20.2,"09:20:08",1
"23/10/03","09:40",0.0,22.2,66.8,1012.3,211.4,0.8,2.4,225.9,0.30,15.8,20.2,"09:35:20",1
"23/10/03","09:50",0.0,22.9,64.3,1012.3,183.6,0.6,1.8,210.2,0.33,15.8,20.3,"09:49:20",1
"23/10/03","10:00",0.0,23.4,63.8,1011.9,229.7,1.0,3.1,234.1,0.44,16.2,20.3,"09:56:32",1
"23/10/03","10:10",0.0,23.7,62.4,1011.6,179.5,1.2,2.5,217.2,0.38,16.1,20.3,"10:01:52",1
"23/10/03","10:20",0.0,23.8,61.6,1011.2,177.6,0.8,1.7,194.3,0.27,16.0,20.4,"10:12:16",1
"23/10/03","10:30",0.0,24.1,59.8,1011.2,195.0,1.2,3.3,206.1,0.38,15.8,20.5,"10:20:02",1
"23/10/03","10:40",0.0,23.6,59.8,1011.2,176.2,1.1,2.7,199.0,0.24,15.4,20.6,"10:31:28",1
"23/10/03","10:50",0.0,24.0,58.5,1010.9,163.7,0.7,1.7,121.3,0.24,15.4,20.7,"10:48:16",1
"23/10/03","11:00",0.0,24.0,59.2,1010.4,142.9,0.6,1.7,124.1,0.21,15.6,20.8,"10:55:12",1
"23/10/03","11:10",0.0,24.2,59.3,1010.2,142.0,0.8,2.1,236.9,0.20,15.8,20.9,"11:09:20",1
"23/10/03","11:20",0.0,24.0,59.6,1010.4,175.6,1.0,3.4,221.5,0.21,15.7,20.9,"11:18:08",1
"23/10/03","11:30",0.0,23.8,60.0,1010.7,215.0,1.3,3.2,222.3,0.22,15.6,20.9,"11:24:00",1
"23/10/03","11:40",0.0,23.8,58.7,1010.7,216.3,1.5,3.1,227.1,0.23,15.3,21.1,"11:36:32",1
"23/10/03","11:50",0.0,23.9,59.8,1010.7,204.6,1.2,2.7,228.1,0.19,15.7,21.0,"11:40:08",1
"23/10/03","12:00",0.0,24.5,58.5,1010.2,287.6,0.6,2.2,243.8,0.21,15.9,21.2,"11:50:08",1
"23/10/03","12:10",0.0,24.9,57.3,1010.0,279.3,0.6,1.3,353.3,0.22,15.9,21.2,"12:09:36",1
"23/10/03","12:20",0.0,25.0,56.3,1010.0,222.6,0.3,1.3,0.3,0.19,15.7,21.2,"12:10:08",1
"23/10/03","12:30",0.0,25.0,56.8,1010.2,182.6,0.8,2.7,206.9,0.20,15.9,21.4,"12:28:48",1
"23/10/03","12:40",0.0,25.0,56.0,1010.0,210.1,0.8,2.1,198.7,0.24,15.7,21.1,"12:30:48",1
"23/10/03","12:50",0.0,24.9,56.2,1009.5,202.9,1.1,2.1,190.5,0.18,15.6,21.4,"12:43:36",1
"23/10/03","13:00",0.0,24.9,58.9,1010.2,249.9,0.7,1.4,254.9,0.15,16.4,21.6,"12:51:04",1
"23/10/03","13:10",0.0,25.3,56.8,1009.5,162.6,0.8,3.7,229.1,0.25,16.2,21.4,"13:01:28",1
"23/10/03","13:20",0.0,25.3,54.6,1009.5,129.8,0.8,1.6,121.0,0.19,15.5,21.5,"13:13:28",1
"23/10/03","13:30",0.0,25.0,55.4,1009.3,131.9,0.3,1.6,127.4,0.14,15.5,21.4,"13:26:56",1
"23/10/03","13:40",0.0,25.2,53.3,1009.3,345.2,0.7,1.8,351.5,0.14,15.1,21.7,"13:35:12",1
"23/10/03","13:50",0.0,25.2,51.9,1009.3,342.9,0.8,1.8,345.1,0.13,14.7,21.5,"13:48:16",1
"23/10/03","14:00",0.0,25.4,52.7,1008.8,341.1,0.5,1.3,16.6,0.13,15.1,21.7,"13:53:28",1
"23/10/03","14:10",0.0,25.3,53.6,1008.6,221.8,0.6,1.7,203.7,0.13,15.3,21.8,"14:08:32",1
"23/10/03","14:20",0.0,25.0,54.0,1008.8,227.8,0.7,2.0,224.5,0.11,15.1,21.7,"14:17:04",1
"23/10/03","14:30",0.0,25.3,54.0,1008.6,55.4,0.5,1.1,120.5,0.14,15.4,21.9,"14:27:36",1
"23/10/03","14:40",0.0,25.5,54.0,1008.6,281.8,0.3,1.3,343.2,0.14,15.6,21.9,"14:36:16",1
"23/10/03","14:50",0.0,25.5,51.6,1008.6,122.0,0.2,1.9,349.5,0.14,14.8,21.9,"14:40:02",1
"23/10/03","15:00",0.0,26.0,48.3,1009.0,81.3,0.7,2.0,341.3,0.16,14.3,21.8,"14:50:16",1
"23/10/03","15:10",0.0,25.9,46.6,1008.8,107.5,0.7,1.8,82.4,0.16,13.6,21.8,"15:03:04",1
"23/10/03","15:20",0.0,25.3,43.8,1008.8,136.9,0.6,1.6,143.4,0.10,12.2,22.0,"15:15:04",1
"23/10/03","15:30",0.0,25.5,46.1,1009.0,54.3,0.5,1.6,80.3,0.10,13.1,22.1,"15:23:20",1
"23/10/03","15:40",0.0,25.2,45.9,1009.3,55.1,0.6,1.4,356.0,0.06,12.8,22.1,"15:30:40",1
"23/10/03","15:50",0.0,25.2,48.0,1009.0,354.7,0.6,1.3,355.5,0.06,13.5,22.1,"15:46:48",1
"23/10/03","16:00",0.0,24.8,49.0,1009.5,21.6,0.3,1.2,65.3,0.01,13.4,22.1,"15:50:24",1
"23/10/03","16:10",0.0,24.3,52.7,1009.3,341.8,0.6,1.4,357.1,0.01,14.1,22.0,"16:03:52",1
"23/10/03","16:20",0.0,23.9,53.0,1009.7,3.4,0.8,1.7,350.6,0.03,13.8,21.9,"16:14:48",1
"23/10/03","16:30",0.0,23.8,57.0,1009.3,340.4,0.6,1.0,335.7,0.02,14.8,21.9,"16:24:24",1
"23/10/03","16:40",0.0,23.6,59.3,1009.5,10.2,0.6,1.6,14.1,0.01,15.2,22.0,"16:38:24",1
"23/10/03","16:50",0.0,23.1,61.7,1009.7,332.0,0.8,1.6,330.3,0.01,15.4,22.1,"16:46:24",1
"23/10/03","17:00",0.0,22.6,63.5,1010.0,315.3,0.8,1.4,286.0,0.00,15.4,21.9,"16:58:24",1
"23/10/03","17:10",0.0,22.3,64.7,1010.0,289.1,1.0,1.6,257.3,0.00,15.4,21.9,"17:09:28",1
"23/10/03","17:20",0.0,22.1,65.8,1010.2,291.8,1.1,2.4,322.0,0.00,15.4,21.9,"17:17:04",1
"23/10/03","17:30",0.0,22.0,65.6,1010.2,318.3,1.2,2.1,337.4,0.00,15.3,21.9,"17:26:08",1
"23/10/03","17:40",0.0,21.8,65.9,1010.2,310.3,1.2,1.7,306.1,0.00,15.2,21.9,"17:32:40",1
"23/10/03","17:50",0.0,21.6,66.8,1010.2,290.8,1.1,2.1,315.3,0.00,15.2,21.9,"17:49:20",1
"23/10/03","18:00",0.0,21.4,68.0,1010.4,288.3,1.1,1.8,338.8,0.00,15.3,21.9,"17:51:36",1
"23/10/03","18:10",0.0,21.2,68.8,1010.2,308.9,1.2,1.8,319.8,0.00,15.3,21.9,"18:02:00",1
"23/10/03","18:20",0.0,21.2,69.4,1009.7,331.0,1.5,2.2,321.8,0.00,15.4,21.8,"18:13:12",1
"23/10/03","18:30",0.0,21.0,69.8,1010.2,305.7,1.1,2.4,306.7,0.00,15.3,21.7,"18:27:36",1
"23/10/03","18:40",0.0,21.1,69.5,1010.9,301.1,1.6,2.8,320.7,0.00,15.3,21.8,"18:38:56",1
"23/10/03","18:50",0.0,21.2,69.3,1010.7,314.8,1.6,2.7,316.0,0.00,15.4,21.8,"18:47:44",1
"23/10/03","19:00",0.0,20.9,69.6,1010.9,309.0,1.3,2.2,322.8,0.00,15.2,21.9,"18:52:00",1
"23/10/03","19:10",0.0,21.1,69.9,1010.9,335.5,1.7,2.8,331.6,0.00,15.4,22.0,"19:02:32",1
"23/10/03","19:20",0.0,20.9,70.2,1010.7,303.3,1.3,2.2,328.3,0.00,15.3,21.7,"19:19:36",1
"23/10/03","19:30",0.0,20.9,70.1,1010.4,320.3,2.1,3.9,338.0,0.00,15.3,21.6,"19:23:36",1
"23/10/03","19:40",0.0,21.0,69.9,1010.7,309.2,2.0,3.4,329.2,0.00,15.3,21.7,"19:31:36",1
"23/10/03","19:50",0.0,20.9,70.3,1010.7,314.1,1.8,2.9,321.8,0.00,15.3,21.6,"19:43:12",1
"23/10/03","20:00",0.0,20.9,70.8,1011.2,321.7,1.7,3.1,335.5,0.00,15.4,21.6,"19:52:08",1
"23/10/03","20:10",0.0,20.9,71.6,1010.7,331.9,2.1,3.5,341.5,0.00,15.6,21.6,"20:04:08",1
"23/10/03","20:20",0.0,20.7,72.5,1010.7,334.2,2.1,3.6,334.6,0.00,15.6,21.6,"20:13:12",1
"23/10/03","20:30",0.0,20.4,73.4,1010.7,328.7,1.7,2.6,336.6,0.00,15.5,21.6,"20:20:40",1
"23/10/03","20:40",0.0,20.4,74.3,1010.7,320.5,1.7,2.8,321.3,0.00,15.7,21.5,"20:34:56",1
"23/10/03","20:50",0.0,20.3,75.1,1010.7,312.0,1.8,4.0,334.2,0.00,15.8,21.6,"20:46:24",1
"23/10/03","21:00",0.0,20.2,75.7,1010.4,320.0,2.3,3.9,328.6,0.00,15.8,21.7,"20:57:52",1
"23/10/03","21:10",0.0,20.3,76.0,1010.4,314.3,2.0,3.9,308.0,0.00,16.0,21.4,"21:07:44",1
"23/10/03","21:20",0.0,20.3,76.0,1010.4,326.4,1.8,3.6,336.5,0.00,16.0,21.4,"21:14:16",1
"23/10/03","21:30",0.0,20.3,75.8,1010.0,314.8,2.0,3.1,306.3,0.00,15.9,21.5,"21:21:36",1
"23/10/03","21:40",0.0,20.3,75.8,1009.7,322.3,2.2,3.6,321.6,0.00,15.9,21.6,"21:30:24",1
"23/10/03","21:50",0.0,20.2,76.4,1009.7,325.8,2.3,3.6,334.9,0.00,16.0,21.4,"21:46:08",1
"23/10/03","22:00",0.0,20.1,77.0,1010.0,319.7,2.1,3.5,340.8,0.00,16.0,21.3,"21:57:04",1
"23/10/03","22:10",0.0,20.1,77.5,1010.0,326.9,2.5,4.9,343.3,0.00,16.1,21.5,"22:02:40",1
"23/10/03","22:20",0.0,20.0,77.8,1009.7,335.8,2.0,4.3,336.2,0.00,16.0,21.4,"22:14:08",1
"23/10/03","22:30",0.0,20.0,78.2,1010.0,325.6,1.7,2.8,342.8,0.00,16.1,21.3,"22:26:40",1
"23/10/03","22:40",0.0,20.0,78.2,1009.7,332.7,2.5,4.8,332.8,0.00,16.1,21.5,"22:36:08",1
"23/10/03","22:50",0.0,19.9,78.3,1009.7,318.5,1.5,3.6,343.8,0.00,16.1,21.4,"22:41:52",1
"23/10/03","23:00",0.0,20.1,78.2,1009.5,331.8,2.6,4.1,321.8,0.00,16.2,21.4,"22:50:48",1
"23/10/03","23:10",0.0,20.0,78.3,1009.3,336.9,2.3,5.7,341.0,0.00,16.1,21.4,"23:01:28",1
"23/10/03","23:20",0.0,20.0,78.5,1009.5,303.7,1.8,3.5,336.5,0.00,16.2,21.3,"23:10:40",1
"23/10/03","23:30",0.0,19.9,78.8,1009.3,314.8,1.7,3.2,306.6,0.00,16.2,21.3,"23:29:52",1
"23/10/03","23:40",0.0,19.9,79.1,1010.0,332.3,2.5,4.9,352.9,0.00,16.2,21.2,"23:33:04",1
"23/10/03","23:50",0.2,19.7,80.4,1009.7,328.6,1.5,3.1,304.6,0.00,16.3,21.3,"23:41:20",1
"23/10/03","24:00",0.2,19.2,81.9,1009.3,284.6,0.5,1.6,266.1,0.00,16.1,21.2,"23:51:52",1
